Location: Roland
(31.1349°N, 85.4372°W)
Time: 04:48:39
(UTC+00:00)

Courier 1B - Pass Details

Date: 27 April 2021
Orbit: 962 x 1209 km, 28.3° (Epoch: 07 May)

Event Time Altitude Azimuth Distance (km) Brightness Sun altitude
Rises 22:05:14 0° 261° (W) 3,655 11.8 27.2°
Reaches altitude 10° 22:10:06 10° 229° (SW) 2,684 10.6 26.2°
Maximum altitude 22:12:02 11° 211° (SSW) 2,579 10.2 25.8°
Drops below altitude 10° 22:13:59 10° 193° (SSW) 2,680 10.0 25.4°
Sets 22:18:52 0° 161° (SSE) 3,639 10.3 24.3°
